This is the latest recevied weather packets stored in our database for station/object VK3AFQ-13. If no packets are shown the sender has not sent any weather packets the latest 10 day(s).
| Time | Temp. | Humidity | Pressure | Rain* | Wind** | Luminosity | Snow |
|---|---|---|---|---|---|---|---|
| 1777474861 | 15.56° C | 58% | 1026.4 hPa | - | - | - | - |
| 1777473963 | 15.56° C | 58% | 1026.4 hPa | - | - | - | - |
| 1777473063 | 15.56° C | 58% | 1026.6 hPa | - | - | - | - |
| 1777472163 | 16.11° C | 56% | 1026.6 hPa | - | - | - | - |
| 1777471262 | 16.11° C | 56% | 1026.7 hPa | - | - | - | - |
| 1777470364 | 16.11° C | 56% | 1026.7 hPa | - | - | - | - |
| 1777469464 | 16.67° C | 56% | 1026.8 hPa | - | - | - | - |
| 1777468564 | 16.67° C | 55% | 1026.8 hPa | - | - | - | - |
| 1777467662 | 16.67° C | 55% | 1026.8 hPa | - | - | - | - |
| 1777466763 | 17.22° C | 55% | 1026.9 hPa | - | - | - | - |
| 1777465864 | 17.22° C | 54% | 1026.9 hPa | - | - | - | - |
| 1777464964 | 17.22° C | 54% | 1027 hPa | - | - | - | - |
| 1777464062 | 17.78° C | 53% | 1027.2 hPa | - | - | - | - |
| 1777463164 | 17.78° C | 51% | 1026.9 hPa | - | - | - | - |
| 1777462264 | 18.33° C | 50% | 1026.9 hPa | - | - | - | - |
| 1777461364 | 18.89° C | 49% | 1026.8 hPa | - | - | - | - |
| 1777460462 | 18.89° C | 49% | 1026.6 hPa | - | - | - | - |
| 1777459564 | 18.33° C | 50% | 1026.6 hPa | - | - | - | - |
| 1777458664 | 18.89° C | 50% | 1026.7 hPa | - | - | - | - |
| 1777457764 | 19.44° C | 49% | 1026.7 hPa | - | - | - | - |
| 1777456862 | 19.44° C | 48% | 1026.6 hPa | - | - | - | - |
| 1777455964 | 20° C | 47% | 1026.5 hPa | - | - | - | - |
| 1777455064 | 20.56° C | 46% | 1026.4 hPa | - | - | - | - |
| 1777454164 | 21.11° C | 46% | 1026.3 hPa | - | - | - | - |
| 1777453262 | 21.11° C | 46% | 1026.3 hPa | - | - | - | - |
* Rain since midnight (hover to see other rain measurements)
** Current wind speed in m/s (hover to see current wind gust speed)